Weather in Mit Gamr

Egypt     30°42′54″N   31°16′16″E
temp.,
°C
wind,
m/s
gust,
m/s
humid.,
%
clouds,
%
prec.,
mm/h
press.,
hPa
HPBL,
m
26 june, sun
sun2623:00+22nnw24730 0.0 101197
02:00+21wnw34760 0.0 101182
05:00+20wnw22780 0.0 101142
08:00+27nw33450 0.0 1011800
11:00+35nnw45210 0.0 10101745
14:00+38nnw77160 0.0 10082302
17:00+33nnw78250 0.0 10091319
20:00+26nnw49490 0.0 1010271
27 june, mon
mon2723:00+24nw38690 0.0 1011201
02:00+23nw23750 0.0 101055
05:00+22wnw23780 0.0 101058
08:00+29wnw45450 0.0 1010925
11:00+36nw57230 0.0 10092337
14:00+37nnw88210 0.0 10072590
17:00+33nnw88240 0.0 10081867
20:00+26nw48490 0.0 1009288
28 june, tue
tue2823:00+22wnw37800 0.0 1009204
02:00+21w24850 0.0 1008118
05:00+20wnw23870 0.0 100852
08:00+27nw23540 0.0 1008801
11:00+34nw33260 0.0 10071934
14:00+38nw44180 0.0 10053143
17:00+34nnw88300 0.0 10051140
20:00+26nnw48570 0.0 1008342
29 june, wed
wed2923:00+23wnw24840 0.0 1009107
02:00+22wnw23920 0.0 100866
05:00+21wnw22950 0.0 100827
08:00+27wnw22560 0.0 1008760
11:00+35w22260 0.0 10071860
14:00+38wnw33180 0.0 10053088
17:00+33nnw87360 0.0 10061132
20:00+26nnw58560 0.0 1007269
30 june, thu
thu3023:00+24n23720 0.0 100880
02:00+22nnw11780 0.0 100712
05:00+21nnw11830 0.0 100711
08:00+28nw11490 0.0 1008727
11:00+35nw22290 0.0 10071904
14:00+38nnw33210 0.0 10053027
17:00+34nnw98290 0.0 10061302
20:00+26nnw58550 0.0 1008316